Home > Weather > Mason > Past weeks

Flag for U.S.A. Weather for the Past 2 Weeks in Mason, Ohio, U.S.A.

Now
39 °F

Cloudy.


Feels Like: 32 °F
Forecast: 31 / 41 °F
Wind: 10 mph from West

Location: Butler County Regional Airport

Current Time: Feb 8, 2016 at 12:43:23 PM

Latest Report: Feb 8, 2016 at 12:01 PM


Visibility: 10 mi

Pressure: 29.67 "Hg

Humidity: 73%

Dew point: 31 °F

Location of MasonLocation

Historic Weather in Mason — Graph

°F

Mason Temperature Yesterday

Maximum temperature yesterday: 54 °F (at 1:53 PM)
Minimum temperature yesterday: 22 °F (at 6:53 AM)
Average temperature yesterday: 40 °F

High & Low Weather Summary for the Past Weeks

 TemperatureHumidityPressure
High65 °F (Jan 30, 2:53 PM)97% (Feb 3, 1:03 AM)30.47 "Hg (Feb 3, 1:03 AM)
Low18 °F (Feb 5, 5:53 AM)27% (Feb 7, 2:53 PM)29.57 "Hg (Feb 3, 2:53 AM)
Average40 °F66%30.02 "Hg
* Reported Jan 24 10:53 AM — Feb 8 10:53 AM, Mason, Weather by CustomWeather, © 2016

Note: Actual official high and low records may vary slightly from our data, if they occured in-between our weather recording intervals... More about our weather records

Advertising

Mason Weather History for the Previous 24 Hours

 ConditionsComfort  
Time TempWeatherWind HumidityBarometerVisibility
10:53 AM
Mon, Feb 8
36 °FLow clouds.7 mph85%29.68 "Hg10 mi
9:53 AM35 °FLight rain. Mostly cloudy.5 mph85%29.67 "Hg9 mi
8:53 AM37 °FLight rain. Overcast.7 mph82%29.68 "Hg8 mi
7:53 AM38 °FOvercast.7 mph79%29.68 "Hg7 mi
6:53 AM37 °FMostly cloudy.No wind82%29.69 "Hg6 mi
5:53 AM36 °FFog.No wind85%29.70 "Hg6 mi
4:53 AM39 °FLight rain. Overcast.No wind76%29.70 "Hg5 mi
3:53 AM41 °FLight rain. Mostly cloudy.3 mph70%29.71 "Hg10 mi
2:53 AM43 °FLight rain. Overcast.5 mph65%29.72 "Hg10 mi
1:53 AM43 °FOvercast.7 mph62%29.74 "Hg10 mi
12:53 AM46 °FOvercast.7 mph44%29.75 "Hg10 mi
11:53 PM
Sun, Feb 7
47 °FMostly cloudy.5 mph41%29.77 "Hg10 mi
10:53 PM47 °FOvercast.No wind39%29.80 "Hg10 mi
9:53 PM48 °FOvercast.5 mph36%29.82 "Hg10 mi
8:53 PM48 °FOvercast.6 mph36%29.85 "Hg10 mi
7:53 PM49 °FClear.6 mph35%29.87 "Hg10 mi
6:53 PM48 °FClear.5 mph36%29.89 "Hg10 mi
5:53 PM51 °FSunny.7 mph31%29.89 "Hg10 mi
4:53 PM53 °FSunny.10 mph28%29.90 "Hg10 mi
3:53 PM53 °FSunny.17 mph27%29.91 "Hg10 mi
2:53 PM54 °FSunny.9 mph27%29.93 "Hg10 mi
1:53 PM54 °FSunny.14 mph29%29.97 "Hg10 mi
12:53 PM52 °FSunny.10 mph34%30.03 "Hg10 mi
Weather by CustomWeather, © 2016

See weather overviewHow to use our weather pages